timestamp,wind_dir_avg,wind_spd_avg,wind_spd_max_dir,wind_spd_gust,battery_voltage,lat,long
2021-09-16 00:04:01+00:00,214.0,7.91,217.0,9.41,12.65,47.59359,-54.27349
2021-09-16 00:14:01+00:00,221.0,7.35,225.0,9.24,12.65,47.59359,-54.27349
2021-09-16 00:24:01+00:00,224.0,7.58,228.0,8.66,12.65,47.59359,-54.27349
2021-09-16 00:34:01+00:00,219.0,8.91,218.0,9.84,12.65,47.59359,-54.27349
2021-09-16 00:44:01+00:00,226.0,8.16,232.0,9.16,12.65,47.59359,-54.27349
2021-09-16 00:54:01+00:00,216.0,9.38,213.0,10.93,12.65,47.59359,-54.27349
2021-09-16 01:04:01+00:00,223.0,9.22,223.0,10.83,12.65,47.59359,-54.27349
2021-09-16 01:14:01+00:00,219.0,8.65,213.0,9.91,12.65,47.59359,-54.27349
2021-09-16 01:24:01+00:00,217.0,8.32,215.0,9.52,12.65,47.59359,-54.27349
2021-09-16 01:34:01+00:00,215.0,8.82,213.0,10.12,12.65,47.59359,-54.27349
2021-09-16 01:44:01+00:00,214.0,8.86,212.0,10.03,12.65,47.59359,-54.27349
2021-09-16 01:54:01+00:00,208.0,10.27,206.0,11.81,12.65,47.59359,-54.27349
2021-09-16 02:04:01+00:00,211.0,9.97,209.0,11.58,12.65,47.59359,-54.27349
2021-09-16 02:14:01+00:00,217.0,9.12,215.0,11.85,12.65,47.59359,-54.27349
2021-09-16 02:24:01+00:00,220.0,9.52,217.0,11.0,12.65,47.59359,-54.27349
2021-09-16 02:34:01+00:00,215.0,8.81,211.0,10.4,12.65,47.59359,-54.27349
2021-09-16 02:44:01+00:00,215.0,10.4,219.0,11.9,12.65,47.59359,-54.27349
2021-09-16 02:54:01+00:00,217.0,11.12,222.0,12.68,12.65,47.59359,-54.27349
2021-09-16 03:04:01+00:00,217.0,10.89,212.0,13.64,12.65,47.59359,-54.27349
2021-09-16 03:14:01+00:00,220.0,9.22,221.0,10.8,12.57,47.59359,-54.27349
2021-09-16 03:24:01+00:00,223.0,10.7,234.0,13.65,12.57,47.59359,-54.27349
2021-09-16 03:34:01+00:00,227.0,11.37,228.0,13.22,12.57,47.59359,-54.27349
2021-09-16 03:44:01+00:00,214.0,10.23,216.0,11.62,12.57,47.59359,-54.27349
2021-09-16 03:54:01+00:00,215.0,10.69,217.0,12.17,12.57,47.59359,-54.27349
2021-09-16 04:04:01+00:00,212.0,11.4,209.0,13.15,12.57,47.59359,-54.27349
2021-09-16 04:14:00+00:00,222.0,11.08,220.0,12.5,12.57,47.59359,-54.27349
2021-09-16 04:24:00+00:00,214.0,11.43,211.0,13.33,12.57,47.59359,-54.27349
2021-09-16 04:34:00+00:00,213.0,12.25,219.0,13.67,12.57,47.59359,-54.27349
2021-09-16 04:44:00+00:00,211.0,10.95,214.0,12.31,12.57,47.59359,-54.27349
2021-09-16 04:54:00+00:00,211.0,10.94,210.0,12.82,12.57,47.59359,-54.27349
2021-09-16 05:04:00+00:00,210.0,10.56,218.0,11.99,12.57,47.59359,-54.27349
2021-09-16 05:14:01+00:00,210.0,13.15,212.0,15.64,12.57,47.59359,-54.27349
2021-09-16 05:24:01+00:00,203.0,12.59,205.0,14.51,12.57,47.59359,-54.27349
2021-09-16 05:34:01+00:00,210.0,11.82,213.0,14.0,12.57,47.59359,-54.27349
2021-09-16 05:44:01+00:00,209.0,13.42,205.0,15.2,12.57,47.59359,-54.27349
2021-09-16 05:54:01+00:00,214.0,12.68,214.0,14.36,12.57,47.59359,-54.27349
2021-09-16 06:04:01+00:00,210.0,12.48,207.0,14.46,12.57,47.59359,-54.27349
2021-09-16 06:14:01+00:00,211.0,13.58,213.0,15.4,12.57,47.59359,-54.27349
2021-09-16 06:24:01+00:00,209.0,13.27,210.0,15.51,12.57,47.59359,-54.27349
2021-09-16 06:34:01+00:00,213.0,14.37,211.0,15.69,12.57,47.59359,-54.27349
2021-09-16 06:44:01+00:00,206.0,15.16,207.0,16.75,12.57,47.59359,-54.27349
2021-09-16 06:54:01+00:00,214.0,13.13,214.0,15.7,12.57,47.59359,-54.27349
2021-09-16 07:04:01+00:00,213.0,13.19,207.0,15.51,12.57,47.59359,-54.27349
2021-09-16 07:14:01+00:00,213.0,13.61,208.0,15.73,12.49,47.59359,-54.27349
2021-09-16 07:24:01+00:00,209.0,13.26,201.0,15.68,12.49,47.59359,-54.27349
2021-09-16 07:34:01+00:00,210.0,14.69,212.0,16.37,12.49,47.59359,-54.27349
2021-09-16 07:44:01+00:00,203.0,14.63,203.0,16.55,12.49,47.59359,-54.27349
2021-09-16 07:54:01+00:00,206.0,13.89,212.0,15.69,12.49,47.59359,-54.27349
2021-09-16 08:04:01+00:00,211.0,13.85,213.0,16.09,12.49,47.59359,-54.27349
2021-09-16 08:14:01+00:00,214.0,12.42,214.0,14.4,12.49,47.59359,-54.27349
2021-09-16 08:24:01+00:00,219.0,13.22,220.0,14.58,12.49,47.59359,-54.27349
2021-09-16 08:34:01+00:00,212.0,12.34,210.0,15.22,12.49,47.59359,-54.27349
2021-09-16 08:44:01+00:00,205.0,12.95,203.0,15.3,12.49,47.59359,-54.27349
2021-09-16 08:54:01+00:00,214.0,13.74,212.0,16.21,12.49,47.59359,-54.27349
2021-09-16 09:04:01+00:00,214.0,12.84,212.0,14.73,12.49,47.59359,-54.27349
2021-09-16 09:14:01+00:00,211.0,13.39,206.0,16.95,12.41,47.59359,-54.27349
2021-09-16 09:24:01+00:00,213.0,12.51,216.0,14.07,12.41,47.59359,-54.27349
2021-09-16 09:34:01+00:00,218.0,13.33,212.0,14.41,12.41,47.59359,-54.27349
2021-09-16 09:44:01+00:00,212.0,13.94,211.0,16.41,12.41,47.59359,-54.27349
2021-09-16 09:54:01+00:00,217.0,15.21,219.0,17.36,12.41,47.59359,-54.27349
2021-09-16 10:04:01+00:00,212.0,16.53,211.0,18.45,12.41,47.59359,-54.27349
2021-09-16 10:14:01+00:00,212.0,14.86,213.0,16.97,12.41,47.59359,-54.27349
2021-09-16 10:24:01+00:00,214.0,15.1,213.0,17.86,12.41,47.59359,-54.27349
2021-09-16 10:34:01+00:00,216.0,14.34,214.0,16.25,12.41,47.59359,-54.27349
2021-09-16 10:44:01+00:00,214.0,13.76,215.0,15.71,12.41,47.59359,-54.27349
2021-09-16 10:54:01+00:00,213.0,14.62,211.0,16.58,12.41,47.59359,-54.27349
2021-09-16 11:04:01+00:00,211.0,13.53,207.0,16.9,12.41,47.59359,-54.27349
2021-09-16 11:14:01+00:00,215.0,15.37,214.0,16.96,12.73,47.59359,-54.27349
2021-09-16 11:24:01+00:00,212.0,14.24,202.0,16.87,12.73,47.59359,-54.27349
2021-09-16 11:34:01+00:00,209.0,16.05,206.0,18.19,12.73,47.59359,-54.27349
2021-09-16 11:44:01+00:00,210.0,13.68,213.0,15.98,12.73,47.59359,-54.27349
2021-09-16 11:54:01+00:00,211.0,12.86,213.0,14.42,12.73,47.59359,-54.27349
2021-09-16 12:04:01+00:00,211.0,14.27,208.0,16.57,12.73,47.59359,-54.27349
2021-09-16 12:14:01+00:00,215.0,13.19,216.0,15.6,12.97,47.59359,-54.27349
2021-09-16 12:24:01+00:00,212.0,15.07,210.0,17.75,12.97,47.59359,-54.27349
2021-09-16 12:34:01+00:00,213.0,14.55,213.0,16.83,12.97,47.59359,-54.27349
2021-09-16 12:44:01+00:00,212.0,14.75,214.0,17.15,12.97,47.59359,-54.27349
2021-09-16 12:54:01+00:00,206.0,15.3,204.0,17.75,12.97,47.59359,-54.27349
2021-09-16 13:04:01+00:00,205.0,15.46,209.0,17.94,12.97,47.59359,-54.27349
2021-09-16 13:14:01+00:00,209.0,17.0,207.0,19.66,13.29,47.59359,-54.27349
2021-09-16 13:24:01+00:00,211.0,16.66,216.0,18.77,13.29,47.59359,-54.27349
2021-09-16 13:34:01+00:00,211.0,15.64,211.0,19.07,13.29,47.59359,-54.27349
2021-09-16 13:44:01+00:00,212.0,15.82,211.0,18.34,13.29,47.59359,-54.27349
2021-09-16 13:54:01+00:00,214.0,14.67,212.0,16.66,13.29,47.59359,-54.27349
2021-09-16 14:04:01+00:00,216.0,14.63,220.0,16.59,13.29,47.59359,-54.27349
2021-09-16 14:14:01+00:00,216.0,13.56,217.0,15.2,13.21,47.59359,-54.27349
2021-09-16 14:24:01+00:00,217.0,14.36,219.0,17.78,13.21,47.59359,-54.27349
2021-09-16 14:34:01+00:00,215.0,15.29,223.0,18.76,13.21,47.59359,-54.27349
2021-09-16 14:44:01+00:00,216.0,15.72,216.0,18.84,13.21,47.59359,-54.27349
2021-09-16 14:54:01+00:00,213.0,14.83,210.0,17.0,13.21,47.59359,-54.27349
2021-09-16 15:04:01+00:00,214.0,14.29,208.0,15.93,13.21,47.59359,-54.27349
2021-09-16 15:14:01+00:00,215.0,12.68,212.0,14.51,13.29,47.59359,-54.27349
2021-09-16 15:24:01+00:00,213.0,13.07,215.0,15.03,13.29,47.59359,-54.27349
2021-09-16 15:34:01+00:00,213.0,13.49,213.0,15.7,13.29,47.59359,-54.27349
2021-09-16 15:44:01+00:00,215.0,14.07,216.0,16.03,13.29,47.59359,-54.27349
2021-09-16 15:54:01+00:00,215.0,12.78,212.0,15.19,13.29,47.59359,-54.27349
2021-09-16 16:04:01+00:00,216.0,13.59,217.0,15.73,13.29,47.59359,-54.27349
2021-09-16 16:14:01+00:00,220.0,12.75,219.0,14.86,13.21,47.59359,-54.27349
2021-09-16 16:24:01+00:00,224.0,12.92,214.0,16.76,13.21,47.59359,-54.27349
2021-09-16 16:34:01+00:00,224.0,12.72,223.0,15.17,13.21,47.59359,-54.27349
2021-09-16 16:44:01+00:00,225.0,11.47,221.0,13.21,13.21,47.59359,-54.27349
2021-09-16 16:54:01+00:00,225.0,11.69,231.0,13.89,13.21,47.59359,-54.27349
2021-09-16 17:04:01+00:00,227.0,10.57,230.0,11.83,13.21,47.59359,-54.27349
2021-09-16 17:14:01+00:00,229.0,10.7,234.0,12.16,13.6,47.59359,-54.27349
2021-09-16 17:24:01+00:00,227.0,10.41,228.0,11.69,13.6,47.59359,-54.27349
2021-09-16 17:34:01+00:00,219.0,11.14,219.0,12.42,13.6,47.59359,-54.27349
2021-09-16 17:44:01+00:00,216.0,10.58,221.0,11.94,13.6,47.59359,-54.27349
2021-09-16 17:54:01+00:00,216.0,9.69,222.0,11.13,13.6,47.59359,-54.27349
2021-09-16 18:04:01+00:00,216.0,8.42,218.0,9.34,13.6,47.59359,-54.27349
2021-09-16 18:14:01+00:00,213.0,8.84,214.0,9.54,13.37,47.59359,-54.27349
2021-09-16 18:24:01+00:00,209.0,8.81,212.0,10.05,13.37,47.59359,-54.27349
2021-09-16 18:34:01+00:00,214.0,8.18,210.0,8.9,13.37,47.59359,-54.27349
2021-09-16 18:44:01+00:00,230.0,5.99,246.0,6.98,13.37,47.59359,-54.27349
2021-09-16 18:54:01+00:00,232.0,6.94,232.0,7.81,13.37,47.59359,-54.27349
2021-09-16 19:04:01+00:00,235.0,6.45,236.0,7.27,13.37,47.59359,-54.27349
2021-09-16 19:14:01+00:00,246.0,6.45,253.0,8.47,13.37,47.59359,-54.27349
2021-09-16 19:24:01+00:00,255.0,6.63,255.0,7.85,13.37,47.59359,-54.27349
2021-09-16 19:34:01+00:00,266.0,7.22,264.0,8.05,13.37,47.59359,-54.27349
2021-09-16 19:44:01+00:00,272.0,7.96,274.0,11.93,13.37,47.59359,-54.27349
2021-09-16 19:54:01+00:00,258.0,9.17,259.0,10.47,13.37,47.59359,-54.27349
2021-09-16 20:04:01+00:00,259.0,6.88,259.0,7.62,13.37,47.59359,-54.27349
2021-09-16 20:14:00+00:00,261.0,7.19,268.0,8.7,13.21,47.59359,-54.27349
2021-09-16 20:24:00+00:00,258.0,3.94,258.0,4.67,13.21,47.59359,-54.27349
2021-09-16 20:34:00+00:00,251.0,5.72,252.0,6.33,13.21,47.59359,-54.27349
2021-09-16 20:44:00+00:00,263.0,4.85,267.0,5.46,13.21,47.59359,-54.27349
2021-09-16 20:54:00+00:00,260.0,3.36,261.0,4.28,13.21,47.59359,-54.27349
2021-09-16 21:04:00+00:00,260.0,4.46,266.0,5.54,13.21,47.59359,-54.27349
2021-09-16 21:14:01+00:00,271.0,2.92,273.0,3.18,13.44,47.59359,-54.27349
2021-09-16 21:24:01+00:00,270.0,6.81,273.0,7.51,13.44,47.59359,-54.27349
2021-09-16 21:34:01+00:00,269.0,6.81,271.0,7.7,13.44,47.59359,-54.27349
2021-09-16 21:44:01+00:00,258.0,4.22,275.0,6.18,13.44,47.59359,-54.27349
2021-09-16 21:54:01+00:00,269.0,6.68,272.0,7.37,13.44,47.59359,-54.27349
2021-09-16 22:04:01+00:00,252.0,4.41,261.0,5.23,13.44,47.59359,-54.27349
2021-09-16 22:14:01+00:00,243.0,5.46,242.0,6.11,12.97,47.59359,-54.27349
2021-09-16 22:24:01+00:00,252.0,5.43,251.0,6.37,12.97,47.59359,-54.27349
2021-09-16 22:34:01+00:00,263.0,5.58,261.0,6.12,12.97,47.59359,-54.27349
2021-09-16 22:44:01+00:00,258.0,6.0,258.0,6.32,12.97,47.59359,-54.27349
2021-09-16 22:54:01+00:00,267.0,7.08,267.0,7.62,12.97,47.59359,-54.27349
2021-09-16 23:04:01+00:00,263.0,6.4,263.0,8.79,12.97,47.59359,-54.27349
